Hatsu Ethic — VQFS4 — position and weather

sailwx.info

Track history (hours):
 
Tides and Currents Weather Stations Pressure Air Temp Water Temp Dewpoint Dewpoint Depression Visibility Wind Speed Wind Dir Waves Ship Positions

Hatsu Ethic

Last reported at 2014-Oct-23 22:29 UTC. Time now 2014-Oct-24 07:48 UTC.
Position N 22°34' E 114°16'.

Type: Ship (hazmat cat D). MMSI: 235603000.

Date/timePositionNaut miles runAvg speedWind from/ knotsBaromVisibWave heightAir tempDewpointWater temp
2014-Oct-23 22:29N 22°34' E 114°16'1 0.9
2014-Oct-23 21:28N 22°34' E 114°16'0 0.0
2014-Oct-23 20:22N 22°34' E 114°16'0 0.0
2014-Oct-23 19:28N 22°34' E 114°16'0 0.0
2014-Oct-23 18:28N 22°34' E 114°16'0 0.0
2014-Oct-23 17:28N 22°34' E 114°16'0 0.0
2014-Oct-23 16:28N 22°34' E 114°16'0 0.0
2014-Oct-23 15:28N 22°34' E 114°16'0 0.0
2014-Oct-23 14:25N 22°34' E 114°16'19 0.7
2014-Oct-22 11:27N 22°18' E 114°06'11 9.7
2014-Oct-22 10:18N 22°22' E 113°55'5 6.7
2014-Oct-22 09:33N 22°27' E 113°54'0 0.3
2014-Oct-22 08:32N 22°27' E 113°54'0 0.0
2014-Oct-22 07:32N 22°27' E 113°54'0 0.0
2014-Oct-22 06:32N 22°27' E 113°54'0 0.0
2014-Oct-22 05:32N 22°27' E 113°54'0 0.0
2014-Oct-22 04:29N 22°27' E 113°54'0 0.0
2014-Oct-22 03:32N 22°27' E 113°54'0 0.0
2014-Oct-22 02:32N 22°27' E 113°54'0 0.0
2014-Oct-22 01:29N 22°27' E 113°54'0 0.0
2014-Oct-22 00:32N 22°27' E 113°54'0 0.0
2014-Oct-21 23:33N 22°27' E 113°54'2 2.1
2014-Oct-21 22:33N 22°25' E 113°53'12 8.4
2014-Oct-21 21:08N 22°20' E 114°05'11813.6
2014-Oct-21 12:31N 22°18' E 116°12'1716.2
2014-Oct-21 11:29N 22°27' E 116°27'1616.7
2014-Oct-21 10:31N 22°35' E 116°42'1717.2
2014-Oct-21 09:32N 22°43' E 116°59'1515.3
2014-Oct-21 08:33N 22°51' E 117°13'1515.3
2014-Oct-21 07:33N 22°58' E 117°27'1616.0
2014-Oct-21 06:33N 23°08' E 117°41'1716.3
2014-Oct-21 05:31N 23°19' E 117°55'1616.6
2014-Oct-21 04:33N 23°28' E 118°10'1716.2
2014-Oct-21 03:32N 23°38' E 118°24'1616.1
2014-Oct-21 02:33N 23°45' E 118°39'1716.3
2014-Oct-21 01:30N 23°55' E 118°55'1615.9
2014-Oct-21 00:31N 24°05' E 119°08'1516.3
2014-Oct-20 23:33N 24°13' E 119°23'1615.8
2014-Oct-20 22:32N 24°21' E 119°38'1716.8
2014-Oct-20 21:33N 24°30' E 119°53'1716.7
2014-Oct-20 20:33N 24°38' E 120°09'1716.7
2014-Oct-20 19:33N 24°48' E 120°24'1515.2
2014-Oct-20 18:33N 24°56' E 120°38'2215.2
2014-Oct-20 17:08N 25°08' E 120°58'814.4
2014-Oct-20 16:33N 25°12' E 121°06'1211.6
2014-Oct-20 15:33N 25°11' E 121°19'4 0.6
2014-Oct-20 08:27N 25°10' E 121°23'0 0.1
2014-Oct-20 07:33N 25°10' E 121°23'6 4.5
2014-Oct-20 06:15N 25°12' E 121°17'710.1
2014-Oct-20 05:34N 25°19' E 121°16'25119.3
2014-Oct-19 16:33N 29°22' E 122°31'1717.5
2014-Oct-19 15:34N 29°39' E 122°30'1313.2
2014-Oct-19 14:33N 29°46' E 122°17'1312.8
2014-Oct-19 13:33N 29°55' E 122°07'4 3.3
2014-Oct-19 12:16N 29°53' E 122°03'0 0.0
2014-Oct-19 11:13N 29°53' E 122°03'0 0.0
2014-Oct-19 10:16N 29°53' E 122°03'0 0.0
2014-Oct-19 09:10N 29°53' E 122°03'0 0.0
2014-Oct-19 08:22N 29°53' E 122°03'0 0.0
2014-Oct-19 07:22N 29°53' E 122°03'0 0.0
2014-Oct-19 06:32N 29°53' E 122°03'0 0.0
2014-Oct-19 05:28N 29°53' E 122°03'0 0.0
2014-Oct-19 03:04N 29°53' E 122°03'0 0.0
2014-Oct-19 02:22N 29°53' E 122°03'0 0.0
2014-Oct-19 01:22N 29°53' E 122°03'0 0.0
2014-Oct-19 00:31N 29°53' E 122°03'0 0.0
2014-Oct-18 23:20N 29°53' E 122°03'1 1.5
2014-Oct-18 22:33N 29°54' E 122°03'1111.2
2014-Oct-18 21:33N 29°49' E 122°14'8 7.5
2014-Oct-18 20:33N 29°44' E 122°21'6 5.7
2014-Oct-18 19:33N 29°45' E 122°28'3 2.6
2014-Oct-18 18:33N 29°45' E 122°31'6 5.8
2014-Oct-18 17:33N 29°48' E 122°37'1711.3
2014-Oct-18 16:04N 30°01' E 122°50'612.5
2014-Oct-18 15:33N 30°07' E 122°50'1312.4
2014-Oct-18 14:32N 30°20' E 122°50'1212.5
2014-Oct-18 13:33N 30°26' E 122°38'9 9.4
2014-Oct-18 12:33N 30°31' E 122°28'9 9.1
2014-Oct-18 11:33N 30°33' E 122°18'1312.9
2014-Oct-18 10:33N 30°37' E 122°04'2 0.1
2014-Oct-17 21:31N 30°38' E 122°03'7 7.5
2014-Oct-17 20:33N 30°34' E 122°10'1010.3
2014-Oct-17 19:33N 30°32' E 122°22'9 9.1
2014-Oct-17 18:33N 30°33' E 122°32'2020.1
2014-Oct-17 17:33N 30°35' E 122°56'2019.8
2014-Oct-17 16:33N 30°45' E 123°15'2420.0
2014-Oct-17 15:20N 31°09' E 123°19'8119.7
2014-Oct-17 11:12N 32°30' E 123°17'3619.7
2014-Oct-17 09:22N 33°06' E 123°18'6117.9
2014-Oct-17 06:00N 34°06' E 123°06'37 0.8 140 / 111023.010.8 0.518.0 8.320.0
2014-Oct-15 06:00N 34°42' E 123°18'24513.6 270 / 101018.510.8 0.518.0 5.820.0
2014-Oct-14 12:00N 34°06' E 128°12'   090 / 91018.510.8 1.017.011.522.0
Track history (hours):
 
Tides and Currents Weather Stations Pressure Air Temp Water Temp Dewpoint Dewpoint Depression Visibility Wind Speed Wind Dir Waves Ship Positions

Hatsu Ethic

Last reported at 2014-Oct-23 22:29 UTC. Time now 2014-Oct-24 07:48 UTC.
Position N 22°34' E 114°16'.

Type: Ship (hazmat cat D). MMSI: 235603000.

Date/timePositionNaut miles runAvg speedWind from/ knotsBaromVisibWave heightAir tempDewpointWater temp
2014-Oct-23 22:29N 22°34' E 114°16'1 0.9
2014-Oct-23 21:28N 22°34' E 114°16'0 0.0
2014-Oct-23 20:22N 22°34' E 114°16'0 0.0
2014-Oct-23 19:28N 22°34' E 114°16'0 0.0
2014-Oct-23 18:28N 22°34' E 114°16'0 0.0
2014-Oct-23 17:28N 22°34' E 114°16'0 0.0
2014-Oct-23 16:28N 22°34' E 114°16'0 0.0
2014-Oct-23 15:28N 22°34' E 114°16'0 0.0
2014-Oct-23 14:25N 22°34' E 114°16'19 0.7
2014-Oct-22 11:27N 22°18' E 114°06'11 9.7
2014-Oct-22 10:18N 22°22' E 113°55'5 6.7
2014-Oct-22 09:33N 22°27' E 113°54'0 0.3
2014-Oct-22 08:32N 22°27' E 113°54'0 0.0
2014-Oct-22 07:32N 22°27' E 113°54'0 0.0
2014-Oct-22 06:32N 22°27' E 113°54'0 0.0
2014-Oct-22 05:32N 22°27' E 113°54'0 0.0
2014-Oct-22 04:29N 22°27' E 113°54'0 0.0
2014-Oct-22 03:32N 22°27' E 113°54'0 0.0
2014-Oct-22 02:32N 22°27' E 113°54'0 0.0
2014-Oct-22 01:29N 22°27' E 113°54'0 0.0
2014-Oct-22 00:32N 22°27' E 113°54'0 0.0
2014-Oct-21 23:33N 22°27' E 113°54'2 2.1
2014-Oct-21 22:33N 22°25' E 113°53'12 8.4
2014-Oct-21 21:08N 22°20' E 114°05'11813.6
2014-Oct-21 12:31N 22°18' E 116°12'1716.2
2014-Oct-21 11:29N 22°27' E 116°27'1616.7
2014-Oct-21 10:31N 22°35' E 116°42'1717.2
2014-Oct-21 09:32N 22°43' E 116°59'1515.3
2014-Oct-21 08:33N 22°51' E 117°13'1515.3
2014-Oct-21 07:33N 22°58' E 117°27'1616.0
2014-Oct-21 06:33N 23°08' E 117°41'1716.3
2014-Oct-21 05:31N 23°19' E 117°55'1616.6
2014-Oct-21 04:33N 23°28' E 118°10'1716.2
2014-Oct-21 03:32N 23°38' E 118°24'1616.1
2014-Oct-21 02:33N 23°45' E 118°39'1716.3
2014-Oct-21 01:30N 23°55' E 118°55'1615.9
2014-Oct-21 00:31N 24°05' E 119°08'1516.3
2014-Oct-20 23:33N 24°13' E 119°23'1615.8
2014-Oct-20 22:32N 24°21' E 119°38'1716.8
2014-Oct-20 21:33N 24°30' E 119°53'1716.7
2014-Oct-20 20:33N 24°38' E 120°09'1716.7
2014-Oct-20 19:33N 24°48' E 120°24'1515.2
2014-Oct-20 18:33N 24°56' E 120°38'2215.2
2014-Oct-20 17:08N 25°08' E 120°58'814.4
2014-Oct-20 16:33N 25°12' E 121°06'1211.6
2014-Oct-20 15:33N 25°11' E 121°19'4 0.6
2014-Oct-20 08:27N 25°10' E 121°23'0 0.1
2014-Oct-20 07:33N 25°10' E 121°23'6 4.5
2014-Oct-20 06:15N 25°12' E 121°17'710.1
2014-Oct-20 05:34N 25°19' E 121°16'25119.3
2014-Oct-19 16:33N 29°22' E 122°31'1717.5
2014-Oct-19 15:34N 29°39' E 122°30'1313.2
2014-Oct-19 14:33N 29°46' E 122°17'1312.8
2014-Oct-19 13:33N 29°55' E 122°07'4 3.3
2014-Oct-19 12:16N 29°53' E 122°03'0 0.0
2014-Oct-19 11:13N 29°53' E 122°03'0 0.0
2014-Oct-19 10:16N 29°53' E 122°03'0 0.0
2014-Oct-19 09:10N 29°53' E 122°03'0 0.0
2014-Oct-19 08:22N 29°53' E 122°03'0 0.0
2014-Oct-19 07:22N 29°53' E 122°03'0 0.0
2014-Oct-19 06:32N 29°53' E 122°03'0 0.0
2014-Oct-19 05:28N 29°53' E 122°03'0 0.0
2014-Oct-19 03:04N 29°53' E 122°03'0 0.0
2014-Oct-19 02:22N 29°53' E 122°03'0 0.0
2014-Oct-19 01:22N 29°53' E 122°03'0 0.0
2014-Oct-19 00:31N 29°53' E 122°03'0 0.0
2014-Oct-18 23:20N 29°53' E 122°03'1 1.5
2014-Oct-18 22:33N 29°54' E 122°03'1111.2
2014-Oct-18 21:33N 29°49' E 122°14'8 7.5
2014-Oct-18 20:33N 29°44' E 122°21'6 5.7
2014-Oct-18 19:33N 29°45' E 122°28'3 2.6
2014-Oct-18 18:33N 29°45' E 122°31'6 5.8
2014-Oct-18 17:33N 29°48' E 122°37'1711.3
2014-Oct-18 16:04N 30°01' E 122°50'612.5
2014-Oct-18 15:33N 30°07' E 122°50'1312.4
2014-Oct-18 14:32N 30°20' E 122°50'1212.5
2014-Oct-18 13:33N 30°26' E 122°38'9 9.4
2014-Oct-18 12:33N 30°31' E 122°28'9 9.1
2014-Oct-18 11:33N 30°33' E 122°18'1312.9
2014-Oct-18 10:33N 30°37' E 122°04'2 0.1
2014-Oct-17 21:31N 30°38' E 122°03'7 7.5
2014-Oct-17 20:33N 30°34' E 122°10'1010.3
2014-Oct-17 19:33N 30°32' E 122°22'9 9.1
2014-Oct-17 18:33N 30°33' E 122°32'2020.1
2014-Oct-17 17:33N 30°35' E 122°56'2019.8
2014-Oct-17 16:33N 30°45' E 123°15'2420.0
2014-Oct-17 15:20N 31°09' E 123°19'8119.7
2014-Oct-17 11:12N 32°30' E 123°17'3619.7
2014-Oct-17 09:22N 33°06' E 123°18'6117.9
2014-Oct-17 06:00N 34°06' E 123°06'37 0.8 140 / 111023.010.8 0.518.0 8.320.0
2014-Oct-15 06:00N 34°42' E 123°18'24513.6 270 / 101018.510.8 0.518.0 5.820.0
2014-Oct-14 12:00N 34°06' E 128°12'   090 / 91018.510.8 1.017.011.522.0

Dump ship's entire track history